Regional Weather Roundup
Issued by NWS Charleston, SC

Current Version | Previous Version | Graphics & Text | Print | Product List | Glossary On
Versions: 1 2 3 4 5 6 7 8 9 10 11 12 13 14 15 16 17 18 19 20 21 22 23 24 25 26 27 28 29 30 31 32 33 34 35 36 37 38 39 40 41 42 43 44 45 46 47 48 49 50
000 ASUS42 KCHS 290613 RWRCHS REGIONAL WEATHER ROUNDUP NATIONAL WEATHER SERVICE CHARLESTON SC 200 AM EDT FRI JUL 29 2016 NOTE: "FAIR" INDICATES FEW OR NO CLOUDS BELOW 12,000 FEET WITH NO SIGNIFICANT WEATHER AND/OR OBSTRUCTIONS TO VISIBILITY. NOT ALL STATIONS ARE QUALITY CONTROLLED. USE DATA WITH CAUTION... ESPECIALLY DEWPOINT OBSERVATIONS. SCZ027-030-031-034>040-042>050-290700- ...SOUTHEAST SOUTH CAROLINA... CITY SKY/WX TMP DP RH WIND PRES REMARKS N CHARLESTON CLEAR 84 78 82 SW10 29.95F HX 95 6HR MIN TEMP: 84; 6HR MAX TEMP: 88; WATERFRONT PRK N/A 86 81 85 SW7 29.93F HX 102 MOUNT PLEASANT FAIR 84 81 89 SW10 29.95S HX 98 JOHNS ISLAND FAIR 86 81 84 SW12 29.96S HX 102 PINOPOLIS N/A 82 79 89 SW9 29.87F HX 93 MONCKS CORNER FAIR 79 75 89 SW6 29.94F SUMMERVILLE NOT AVBL BEAUFORT MCAS CLEAR 82 77 84 SW7 29.97S HX 90 6HR MIN TEMP: 82; 6HR MAX TEMP: 89; BEAUFORT ARPT FAIR 82 79 89 SW6 29.96F HX 93 HILTON HEAD IS CLEAR 84 77 79 SW8 29.98F HX 94 WALTERBORO CLEAR 82 82 100 SW7 29.96F HX 97 ALLENDALE FAIR 79 68 69 CALM 29.95F ...SOUTHERN MIDLANDS AND PEE DEE... CITY SKY/WX TMP DP RH WIND PRES REMARKS GEORGETOWN FAIR 81 77 89 SW7 29.95S KINGSTREE FAIR 81 73 78 S3 29.93S ORANGEBURG CLEAR 77 68 73 S3 29.95F 6HR MIN TEMP: 77; 6HR MAX TEMP: 92; BARNWELL NOT AVBL AIKEN FAIR 79 68 69 SW6 29.99F MANNING FAIR 81 75 83 SW6 29.94F COLUMBIA PTCLDY 83 68 60 W5 29.92F 6HR MIN TEMP: 83; 6HR MAX TEMP: 95; SUMTER CLEAR 81 68 65 SW9 29.91F 6HR MIN TEMP: 81; 6HR MAX TEMP: 92; FLORENCE CLEAR 81 71 71 SW7 29.92S 6HR MIN TEMP: 81; 6HR MAX TEMP: 91; MYRTLE BEACH CLEAR 82 72 69 SW7 29.95S N MYRTLE BEACH CLEAR 84 77 79 SW12 29.92F HX 94 6HR MIN TEMP: 83; 6HR MAX TEMP: 86; $$ GAZ063-065-086>088-099>101-113>116-118-119-134>141-150-290700- ...SOUTHEAST GEORGIA... CITY SKY/WX TMP DP RH WIND PRES REMARKS SAVANNAH ARPT CLEAR 82 73 74 SW10 29.98F 6HR MIN TEMP: 82; 6HR MAX TEMP: 91; HUNTER AAF CLEAR 82 77 85 SW7 29.96F 6HR MIN TEMP: 81; 6HR MAX TEMP: 88; FORT STEWART NOT AVBL STATESBORO CLEAR 82 70 67 CALM 29.98S SYLVANIA NOT AVBL CLAXTON FAIR 76 72 88 CALM 29.99S ...CSRA...CENTRAL AND FAR SOUTHEAST GEORGIA... CITY SKY/WX TMP DP RH WIND PRES REMARKS THOMSON NOT AVBL AUGUSTA-BUSH CLEAR 79 67 66 SW3 29.95F 6HR MIN TEMP: 79; 6HR MAX TEMP: 93; AUGUSTA-DANIEL CLEAR 84 69 60 VRB3 29.96F SWAINSBORO FAIR 81 66 61 CALM 29.99F VIDALIA CLEAR 81 68 65 SW6 30.00F EASTMAN FAIR 81 61 51 SW3 30.02F HAZLEHURST FAIR 83 74 75 CALM 30.00S HX 90 ALMA CLEAR 80 71 74 SW5 30.01F 6HR MIN TEMP: 79; 6HR MAX TEMP: 93; WAYCROSS CLEAR 83 77 81 W5 30.02S HX 91 JESUP FAIR 79 75 89 SW3 30.01S BAXLEY FAIR 81 77 89 CALM 30.01S BRUNSWICK CLEAR 82 77 83 SW5 30.01F HX 91 SAINT SIMONS CLEAR 83 76 79 SW9 30.01F HX 91 6HR MIN TEMP: 83; 6HR MAX TEMP: 88; $$ SCZ027-028-034-036>038-045-046-048>050-GAZ119-141-290700- ...LAKE AND SUPPLEMENTAL COASTAL OBSERVATIONS... STATION/POSITION TIME TEMP WIND PRES WAVE SWELL AIR SEA DIR/SP/G HT/PER HT/PER/DIR (UTC) (F) (DEG/KT/KT) (MB) (FT/S) (FT/S/D) WINYAH BAY NOT AVBL LAKE MURRAY 0500 85 250/ 7/ 9 1013.2S ACE BASIN NERRS NOT AVBL FORT PULASKI 0500 84 87 200/ 7/ 10 1015.8S SAPELO ISLAND 0500 83 200/ 11 1016.0S $$ ANZ835-935-AMZ111-154-330-350-352-354-370-450-454-472-290700- ...C-MAN AND BUOY OBSERVATIONS... STATION/POSITION TIME TEMP WIND PRES WAVE SWELL AIR SEA DIR/SP/G HT/PER HT/PER/DIR (UTC) (F) (DEG/KT/KT) (MB) (FT/S) (FT/S/D) BUOY 41004 0550 86 86 230/ 21/ 23 1013.7F 4/ 5 BUOY 41008 0550 86 87 190/ 19/ 21 1015.4S 4/ 5 FOLLY BEACH CMAN 0600 86 230/ 14/ 18 1014.5F CAPERS NEARSHORE 0508 85 85 230/ 19/ 25 1014.0F FRIPP NEARSHORE 0508 87 87 220/ 19/ 23 1014.5S STATION/POSITION TIME TEMP WIND PRES WAVE SWELL AIR SEA DIR/SP/G HT/PER HT/PER/DIR (UTC) (F) (DEG/KT/KT) (MB) (FT/S) (FT/S/D) 5E ST. MARYS GA 0501 85 N/A 2/ 4 FRYING PAN BUOY 0500 86 85 230/ 17/ 23 1013.1F BUOY 41025 0550 85 85 240/ 17/ 21 1012.2R 4/ 5 2/270/ 8 CAPE LOOKOUT NC 0500 84 230/ 12/ 20 1012.1F BUOY 41002 0550 84 84 250/ 10/ 10 1015.4F 3/ 7 3/250/ 7 BUOY 41010 0520 85 87 210/ 10/ 14 1017.3F ST AUGUSTINE FL 0600 81 85 230/ 4/ 4 1017.8F $$

USA.gov is the U.S. government's official web portal to all federal, state and local government web resources and services.